Location: Landeleau
(48.2273°N, 3.7285°W)
Time: 23:49:07
(UTC+00:00)

Aureole 3 - Pass Details

Date: 30 March 2020
Orbit: 381 x 1235 km, 82.5° (Epoch: 04 June)

Event Time Altitude Azimuth Distance (km) Brightness Sun altitude
Exits shadow 20:11:11 - 178° (S) 2,251 6.2 -14.9°
Reaches altitude 10° 20:12:12 10° 176° (S) 1,841 5.7 -15.1°
Maximum altitude 20:16:12 64° 94° (E) 726 3.6 -15.7°
Drops below altitude 10° 20:21:22 10° 14° (NNE) 2,365 6.7 -16.4°
Sets 20:24:05 0° 12° (NNE) 3,453 7.6 -16.9°
